Weather in Panakhes

Russia / Republic of Adygea     44°59′10″N   38°42′54″E
temp.,
°C
wind,
m/s
gust,
m/s
humid.,
%
clouds,
%
prec.,
mm/h
press.,
hPa
HPBL,
m
19 april, mon
mon1900:00+11wsw2297100 0.3 101624
03:00+11wnw3598100 1.6 1015147
06:00+12w1198100 0.5 101427
09:00+13nnw1298100 3.3 101470
12:00+14w2494100 3.4 1014301
15:00+14w4792100 3.9 1014313
18:00+15nw3491100 0.2 1014341
21:00+12nne2397100 0.2 101481
20 april, tue
tue2000:00+12n1199100 2.8 101360
03:00+12e4899100 14.3 1008238
06:00+12ene1799100 0.3 1006330
09:00+14ese2394100 1.7 1005300
12:00+16wsw6108296 0.4 1006943
15:00+17sw814632 0.4 10071410
18:00+13sw713712 0.0 1009986
21:00+11sw7117796 0.0 1013883
21 april, wed
wed2100:00+9sw358860 0.0 101596
03:00+8w239229 0.0 101547
06:00+8s2389100 0.0 1016105
09:00+11sw2479100 0.0 1018535
12:00+14wsw4764100 0.2 10181351
15:00+16wsw685716 0.2 10181551
18:00+14wsw58702 0.0 1019470
21:00+9sw228361 0.0 102129
22 april, thu
thu2200:00+8ssw2288100 0.0 102116
03:00+7w11878 0.0 102210
06:00+7se11875 0.0 102210
09:00+12e1171100 0.0 1023406
12:00+16ne1158100 0.0 10231107
15:00+17nnw115179 0.0 10221581
18:00+16nnw116430 0.1 1022101
21:00+11nw358510 0.2 102388
23 april, fri
fri2300:00+9wnw22910 0.0 102432
03:00+8w22893 0.0 102417
06:00+8wsw01883 0.0 102411
09:00+13ese11730 0.0 1024385
12:00+18s11590 0.0 10231135
15:00+19nw125173 0.1 10221686
18:00+17se226660 0.1 102240
21:00+12sw227991 0.2 102221